TimeHST,TemperatureF,Dew PointF,Humidity,Sea Level PressureIn,VisibilityMPH,Wind Direction,Wind SpeedMPH,Gust SpeedMPH,PrecipitationIn,Events,Conditions,WindDirDegrees,DateUTC
12:53 AM,73.0,66.0,79,29.97,10.0,NW,3.5,-,N/A,,Partly Cloudy,320,2013-10-17 10:53:00
1:53 AM,72.0,66.0,81,29.95,10.0,NNE,5.8,-,N/A,,Partly Cloudy,30,2013-10-17 11:53:00
2:53 AM,73.0,66.0,79,29.95,10.0,Calm,Calm,-,N/A,,Partly Cloudy,0,2013-10-17 12:53:00
3:53 AM,73.0,66.9,81,29.94,10.0,NNW,6.9,-,N/A,,Partly Cloudy,340,2013-10-17 13:53:00
4:53 AM,71.1,66.0,84,29.94,10.0,North,3.5,-,N/A,,Partly Cloudy,350,2013-10-17 14:53:00
5:53 AM,71.1,66.0,84,29.95,10.0,Calm,Calm,-,N/A,,Partly Cloudy,0,2013-10-17 15:53:00
6:53 AM,72.0,66.9,84,29.96,10.0,North,3.5,-,N/A,,Scattered Clouds,350,2013-10-17 16:53:00
7:53 AM,75.9,68.0,76,29.98,10.0,NNW,3.5,-,N/A,,Scattered Clouds,330,2013-10-17 17:53:00
8:53 AM,79.0,66.9,66,29.99,10.0,Calm,Calm,-,N/A,,Mostly Cloudy,0,2013-10-17 18:53:00
9:53 AM,80.1,66.9,64,29.99,10.0,South,6.9,-,N/A,,Mostly Cloudy,170,2013-10-17 19:53:00
10:53 AM,82.0,69.1,65,29.98,10.0,South,10.4,-,N/A,,Mostly Cloudy,180,2013-10-17 20:53:00
11:53 AM,81.0,69.1,67,29.97,10.0,SSE,10.4,-,N/A,,Overcast,150,2013-10-17 21:53:00
12:53 PM,82.9,66.9,58,29.95,10.0,South,6.9,-,N/A,,Overcast,190,2013-10-17 22:53:00
1:53 PM,82.9,66.0,56,29.93,10.0,South,8.1,-,N/A,,Mostly Cloudy,190,2013-10-17 23:53:00
2:53 PM,82.0,68.0,62,29.93,10.0,SSW,8.1,-,N/A,,Scattered Clouds,210,2013-10-18 00:53:00
3:53 PM,82.0,69.1,65,29.93,10.0,SSW,9.2,-,N/A,,Scattered Clouds,200,2013-10-18 01:53:00
4:53 PM,81.0,66.9,62,29.93,10.0,SSW,8.1,-,N/A,,Scattered Clouds,200,2013-10-18 02:53:00
5:53 PM,79.0,68.0,69,29.95,10.0,SSE,6.9,-,N/A,,Scattered Clouds,160,2013-10-18 03:53:00
6:53 PM,79.0,68.0,69,29.95,10.0,SE,5.8,-,N/A,,Scattered Clouds,140,2013-10-18 04:53:00
7:53 PM,79.0,69.1,72,29.98,10.0,Calm,Calm,-,N/A,,Partly Cloudy,0,2013-10-18 05:53:00
8:53 PM,78.1,68.0,71,29.99,10.0,ESE,3.5,-,N/A,,Scattered Clouds,110,2013-10-18 06:53:00
9:53 PM,77.0,66.9,71,30.00,10.0,Calm,Calm,-,N/A,,Scattered Clouds,0,2013-10-18 07:53:00
10:53 PM,75.9,66.9,74,29.99,10.0,North,4.6,-,N/A,,Partly Cloudy,360,2013-10-18 08:53:00
11:53 PM,75.9,66.0,71,29.99,10.0,NNW,3.5,-,N/A,,Scattered Clouds,340,2013-10-18 09:53:00